Date String (YYYY-MM-DD hh:mm:ss) UTC,Instrument flags,Ambient pressure (hPa),Sample flow (lpm),Bypass flow (lpm),Sample temperature (°C),Ambient temperature (°C),ASC tube jacket temperature (°C),LED temperature (°C),Box temperature (°C),Sample RH (%),Span deviation,Mass concentration (μg/m³),Mass concentration (μg/m³),Mass concentration (μg/m³)
DateTimeUTC,F1_M11,P_M11,Q1_M11,Q2_M11,T1_M11,T2_M11,T3_M11,T4_M11,T5_M11,U1_M11,ZSPAN_M11,X0_M11,X2_M11,X1_M11
2021-09-03 17:00:00,,0829.6,4.99,0.00,29.9,29.2,00.0,38.9,31.8,31.8,0001.2,0027.90,0018.58,0017.70
2021-09-03 17:01:00,,0829.6,5.01,0.00,30.0,29.2,00.0,38.9,31.9,31.9,0001.0,0027.08,0018.58,0017.72
2021-09-03 17:02:00,,0829.6,5.00,0.00,30.0,29.3,00.0,38.9,31.9,31.9,0001.1,0026.72,0018.58,0017.72
2021-09-03 17:03:00,,0829.6,5.01,0.00,30.0,28.5,00.0,38.9,31.8,32.3,0001.3,0026.39,0018.56,0017.72
2021-09-03 17:04:00,,0829.6,4.99,0.00,29.9,26.9,00.0,38.9,31.3,32.4,0001.5,0026.23,0018.58,0017.72
2021-09-03 17:05:00,,0829.5,5.00,0.00,29.8,26.3,00.0,38.9,31.1,32.4,0001.4,0027.08,0018.61,0017.74
2021-09-03 17:06:00,,0829.5,5.00,0.00,29.7,26.6,00.0,38.9,31.1,33.2,0001.4,0026.74,0018.58,0017.70
2021-09-03 17:07:00,,0829.5,5.00,0.00,29.7,27.1,00.0,38.8,31.2,32.8,0001.6,0026.85,0018.65,0017.71
2021-09-03 17:08:00,,0829.5,5.00,0.00,29.7,27.5,00.0,38.8,31.3,33.0,0001.7,0026.98,0018.67,0017.73
2021-09-03 17:09:00,,0829.5,5.01,0.00,29.7,27.8,00.0,38.8,31.4,32.7,0001.8,0027.28,0018.70,0017.74
2021-09-03 17:10:00,,0829.6,4.99,0.00,29.7,28.1,00.0,38.8,31.5,32.7,0002.0,0027.56,0018.65,0017.70
2021-09-03 17:11:00,,0829.5,4.99,0.00,29.7,28.4,00.0,38.8,31.5,32.5,0002.0,0027.37,0018.65,0017.70
2021-09-03 17:12:00,,0829.6,5.01,0.00,29.8,28.6,00.0,38.8,31.6,32.6,0002.0,0027.24,0018.62,0017.68
2021-09-03 17:13:00,,0829.6,4.99,0.00,29.8,28.8,00.0,38.8,31.7,32.6,0002.1,0026.94,0018.64,0017.71
2021-09-03 17:14:00,,0829.6,4.99,0.00,29.9,28.9,00.0,38.8,31.7,32.6,0002.0,0027.42,0018.69,0017.72
2021-09-03 17:15:00,,0829.5,5.02,0.00,29.9,29.0,00.0,38.9,31.8,32.9,0001.8,0027.99,0018.75,0017.77
2021-09-03 17:16:00,,0829.5,5.01,0.00,29.9,29.1,00.0,38.9,31.8,32.4,0001.8,0028.23,0018.79,0017.80
2021-09-03 17:17:00,,0829.5,4.99,0.00,30.0,29.2,00.0,38.9,31.9,32.3,0001.6,0028.69,0018.82,0017.84
2021-09-03 17:18:00,,0829.5,4.99,0.00,30.0,28.4,00.0,38.9,31.7,32.3,0001.5,0028.97,0018.80,0017.84
2021-09-03 17:19:00,,0829.5,5.01,0.00,29.9,26.8,00.0,38.9,31.2,32.4,0001.5,0028.70,0018.84,0017.83
2021-09-03 17:20:00,,0829.5,5.00,0.00,29.7,26.3,00.0,38.9,31.1,32.4,0001.6,0028.42,0018.87,0017.85
2021-09-03 17:21:00,,0829.5,4.99,0.00,29.7,26.6,00.0,38.9,31.1,32.2,0001.4,0028.44,0018.93,0017.90
2021-09-03 17:22:00,,0829.5,5.01,0.00,29.6,27.1,00.0,38.8,31.2,32.6,0001.3,0028.62,0018.90,0017.90
2021-09-03 17:23:00,,0829.5,4.99,0.00,29.6,27.5,00.0,38.8,31.3,32.6,0001.4,0028.84,0018.94,0017.92
2021-09-03 17:24:00,,0829.5,5.00,0.00,29.6,27.8,00.0,38.8,31.4,32.5,0001.4,0028.95,0018.96,0017.92
2021-09-03 17:25:00,,0829.5,4.99,0.00,29.7,28.1,00.0,38.8,31.4,32.6,0001.4,0028.51,0018.96,0017.95
2021-09-03 17:26:00,,0829.4,5.01,0.00,29.7,28.4,00.0,38.8,31.5,32.1,0001.1,0027.93,0018.95,0017.94
2021-09-03 17:27:00,,0829.4,5.01,0.00,29.8,28.6,00.0,38.8,31.6,32.6,0001.1,0026.88,0019.01,0017.94
2021-09-03 17:28:00,,0829.4,4.99,0.00,29.8,28.8,00.0,38.8,31.7,32.5,0001.2,0026.04,0018.99,0017.91
2021-09-03 17:29:00,,0829.2,5.00,0.00,29.8,28.9,00.0,38.8,31.7,32.4,0001.1,0025.92,0018.96,0017.85
2021-09-03 17:30:00,,0829.3,5.01,0.00,29.9,29.0,00.0,38.8,31.8,32.5,0001.1,0026.00,0018.91,0017.81
2021-09-03 17:31:00,,0829.4,5.00,0.00,29.9,29.1,00.0,38.9,31.8,32.0,0000.9,0026.14,0018.80,0017.72
2021-09-03 17:32:00,,0829.3,5.01,0.00,29.9,28.1,00.0,38.9,31.5,32.1,0000.8,0025.64,0018.75,0017.64
2021-09-03 17:33:00,,0829.4,4.99,0.00,29.8,26.6,00.0,38.9,31.2,31.7,0000.8,0025.66,0018.75,0017.59
2021-09-03 17:34:00,,0829.3,5.00,0.00,29.7,26.4,00.0,38.9,31.1,32.0,0000.7,0025.80,0018.66,0017.49
2021-09-03 17:35:00,,0829.4,5.00,0.00,29.6,26.7,00.0,38.8,31.1,32.6,0000.7,0025.76,0018.54,0017.39
2021-09-03 17:36:00,,0829.4,5.00,0.00,29.6,27.1,00.0,38.8,31.2,32.9,0000.5,0025.80,0018.48,0017.30
2021-09-03 17:37:00,,0829.4,4.99,0.00,29.6,27.6,00.0,38.8,31.3,32.6,0000.8,0026.40,0018.46,0017.22
2021-09-03 17:38:00,,0829.3,5.01,0.00,29.6,27.9,00.0,38.7,31.4,32.6,0000.9,0026.43,0018.34,0017.13
2021-09-03 17:39:00,,0829.3,5.00,0.00,29.7,28.2,00.0,38.7,31.5,32.2,0000.9,0026.66,0018.27,0017.08
2021-09-03 17:40:00,,0829.2,5.00,0.00,29.7,28.5,00.0,38.7,31.5,31.9,0001.1,0026.86,0018.23,0017.07
2021-09-03 17:41:00,,0829.2,5.00,0.00,29.8,28.7,00.0,38.8,31.6,31.9,0001.2,0027.02,0018.24,0017.05
2021-09-03 17:42:00,,0829.2,5.00,0.00,29.8,28.9,00.0,38.8,31.7,32.1,0001.3,0027.42,0018.25,0017.01
2021-09-03 17:43:00,,0829.2,4.99,0.00,29.9,29.0,00.0,38.8,31.7,31.7,0001.4,0027.78,0018.22,0016.97
2021-09-03 17:44:00,,0829.2,5.01,0.00,29.9,29.0,00.0,38.8,31.8,32.1,0001.4,0028.82,0018.12,0016.93
2021-09-03 17:45:00,,0829.2,5.00,0.00,29.9,27.7,00.0,38.8,31.5,32.3,0001.5,0029.29,0018.17,0016.97
2021-09-03 17:46:00,,0829.2,5.01,0.00,29.7,26.5,00.0,38.8,31.1,32.6,0001.5,0030.93,0018.29,0017.03
2021-09-03 17:47:00,,0829.2,5.01,0.00,29.6,26.3,00.0,38.8,31.0,32.7,0001.7,0030.94,0018.29,0017.03
2021-09-03 17:48:00,,0829.2,5.00,0.00,29.6,26.7,00.0,38.8,31.1,32.9,0001.5,0030.40,0018.20,0016.96
2021-09-03 17:49:00,,0829.2,5.00,0.00,29.6,27.2,00.0,38.7,31.2,32.6,0001.4,0030.47,0018.17,0016.94
2021-09-03 17:50:00,,0829.2,4.98,0.00,29.6,27.6,00.0,38.7,31.3,32.6,0001.2,0030.10,0018.17,0016.93
2021-09-03 17:51:00,,0829.1,5.01,0.00,29.6,28.0,00.0,38.7,31.4,32.6,0001.2,0029.91,0018.15,0016.91
2021-09-03 17:52:00,,0829.1,5.01,0.00,29.7,28.3,00.0,38.7,31.5,32.6,0001.0,0028.78,0018.15,0016.90
2021-09-03 17:53:00,,0829.1,5.00,0.00,29.7,28.5,00.0,38.7,31.5,32.6,0001.1,0027.98,0018.11,0016.92
2021-09-03 17:54:00,,0829.1,4.99,0.00,29.7,28.7,00.0,38.7,31.6,32.5,0001.2,0027.37,0018.12,0016.96
2021-09-03 17:55:00,,0829.2,5.01,0.00,29.8,28.9,00.0,38.7,31.7,33.0,0001.2,0026.12,0018.17,0016.97
2021-09-03 17:56:00,,0829.2,5.00,0.00,29.9,29.0,00.0,38.8,31.7,32.5,0001.2,0025.44,0018.15,0016.96
2021-09-03 17:57:00,,0829.3,5.00,0.00,29.9,28.1,00.0,38.8,31.5,32.6,0001.2,0024.15,0018.10,0016.93
2021-09-03 17:58:00,,0829.3,4.99,0.00,29.7,26.5,00.0,38.8,31.1,32.8,0001.2,0024.20,0018.07,0016.97
2021-09-03 17:59:00,,0829.3,5.00,0.00,29.6,26.2,00.0,38.8,30.9,32.9,0001.2,0024.15,0018.07,0017.03
